Location: Burland Observatory
(39.4088°N, 105.4217°W)
Time: 13:24:24
(UTC-07:00)

Vanguard 3 - Pass Details

Date: 17 December 2019
Orbit: 507 x 3264 km, 33.4° (Epoch: 29 January)

Event Time Altitude Azimuth Distance (km) Brightness Sun altitude
Rises 12:01:50 0° 273° (W) 4,794 11.1 27.2°
Reaches altitude 10° 12:05:05 10° 263° (W) 4,169 11.0 27.2°
Maximum altitude 12:14:57 30° 208° (SSW) 3,708 12.1 27.1°
Drops below altitude 10° 12:29:02 10° 156° (SSE) 5,976 12.6 26.8°
Sets 12:35:02 0° 147° (SSE) 7,170 12.6 26.6°
